User: anonymous   Login
Location: Newark
(42.9277°N, 71.8621°W)
Time: 05:30:57
(UTC+00:00)
Language:

S-56A Canister/Altair - Orbit

View from above orbital plane
View from above orbital plane
View from above satellite
View from above satellite

Ground track
Ground track

The orbit data is extracted from the following two-line orbital elements,

1    82U 61004B   20148.46389868 -.00000037 +00000-0 +97045-5 0  9999
2    82 038.8589 276.1109 1174248 342.2534 014.0223 12.26063496805238
Epoch (UTC): 27 May 2020 11:08:00
Eccentricity: 0.1174248
inclination: 38.8589°
perigee height: 633 km
apogee height: 2499 km
right ascension of ascending node: 276.1109°
argument of perigee: 342.2534°
revolutions per day: 12.26063496
mean anomaly at epoch: 14.0223°
orbit number at epoch: 80523

The dashed part of the orbit path shows where the satellite is in the earth's shadow,  

DLR